Theta_e
350 351 351 351 350 349 348 347 348 347 346 346 348 348 348 347 346 345 345 346 345 348 353 343 347 349 351 350 352 350 349 349 350 349 347 349 345 346 346 347 347 346 345
350 350 351 351 350 349 349 349 347 348 347 346 346 348 348 348 347 346 347 352 353 352 352 350 352 351 353 354 353 353 352 352 350 352 351 349 346 345 346 346 346 342 342
350 350 350 350 350 350 349 349 347 347 347 347 347 347 348 349 348 349 351 352 352 352 352 352 352 354 354 353 351 353 352 353 352 351 350 348 346 346 345 345 344 343 342
351 350 351 351 351 350 351 350 350 349 350 351 350 351 351 351 351 352 352 352 351 350 352 352 353 353 353 354 355 354 354 353 353 352 350 350 347 344 345 344 342 342 337
352 352 352 352 352 352 352 352 351 351 350 350 350 350 349 350 350 351 350 350 352 352 353 354 353 353 351 350 349 351 353 352 352 352 352 351 349 343 342 343 343 342 341
353 353 353 353 353 353 353 352 352 352 351 351 349 350 352 353 352 350 350 353 354 354 354 354 355 350 350 350 350 350 349 349 352 352 352 351 351 349 347 344 342 338 339
354 354 354 353 353 353 353 353 353 353 352 350 351 353 354 354 351 351 350 349 353 354 354 354 353 350 350 353 352 348 349 349 348 349 351 352 351 352 350 346 342 341 342
354 355 354 354 354 354 354 354 354 355 355 355 356 356 357 355 351 350 349 348 348 351 351 352 353 353 353 351 353 352 352 352 351 348 349 351 352 351 352 349 347 344 343
355 355 355 354 354 355 354 354 355 356 356 356 356 355 353 349 347 345 344 344 344 344 345 345 345 346 347 347 345 348 351 351 350 349 348 348 348 349 350 350 346 343 341
353 354 354 353 353 355 354 355 355 355 356 353 350 347 346 341 339 334 329 329 332 332 332 333 332 334 339 339 341 343 346 348 350 351 351 348 347 347 348 348 349 343 343
353 353 352 351 351 350 351 354 353 352 350 348 343 338 333 331 326 326 326 326 327 326 327 328 329 329 329 335 337 338 339 341 346 349 350 352 350 347 346 346 347 345 346
353 353 353 352 351 351 352 351 351 349 345 340 335 331 328 325 325 325 325 325 325 324 324 324 323 323 324 325 330 334 335 338 343 344 345 346 349 349 347 345 346 347 346
355 355 355 354 354 353 353 349 345 341 340 334 331 330 329 327 326 324 324 324 325 324 323 325 325 325 325 325 328 333 336 339 339 342 343 344 344 349 347 347 345 344 344
356 354 350 348 347 345 342 336 335 334 332 330 329 329 329 328 328 326 324 324 324 323 323 325 326 326 326 327 328 332 335 338 339 340 342 345 345 347 345 344 343 342 342
354 347 342 339 338 336 335 335 329 325 324 327 329 329 328 327 326 324 325 324 323 324 325 324 325 326 328 330 331 333 335 336 338 338 339 340 343 344 342 343 343 342 341
349 343 337 331 331 329 328 328 328 329 327 323 325 327 324 323 322 323 325 324 324 325 324 324 324 324 324 325 328 330 332 334 336 336 337 338 336 342 343 341 341 340 339
341 340 337 333 331 328 328 329 326 328 326 324 323 322 322 321 321 321 324 325 324 326 326 324 324 323 322 322 323 325 326 328 331 332 334 335 337 339 339 340 338 338 338
340 338 338 335 331 328 328 328 329 327 325 325 324 323 322 321 321 320 322 328 327 327 326 324 324 323 322 322 322 323 324 326 327 328 329 330 331 332 333 336 336 336 335
339 337 336 335 332 331 329 329 328 328 329 331 328 325 324 323 322 322 322 327 327 328 327 326 323 324 323 322 323 323 324 324 325 326 326 327 328 328 329 329 329 330 331
336 335 333 334 333 331 330 329 328 328 329 331 332 333 329 325 326 327 327 327 328 328 328 328 327 324 324 324 326 327 325 324 324 324 325 325 326 326 326 327 327 327 326
336 335 332 333 332 330 330 330 330 331 332 333 334 333 332 332 332 331 328 327 326 327 328 328 328 327 325 325 326 327 327 327 326 326 327 325 325 325 325 326 324 323 322
338 337 333 331 332 332 332 333 334 335 335 334 334 334 331 330 332 332 331 331 329 327 326 327 328 327 326 325 325 326 327 328 328 327 327 327 327 327 326 326 325 325 324
336 338 333 332 332 333 333 335 336 336 334 334 334 333 329 331 331 331 331 331 330 329 327 327 328 328 327 327 326 325 325 325 326 326 326 325 325 326 325 324 325 326 326
338 337 336 334 335 335 336 337 336 334 334 334 333 331 331 329 329 329 329 329 329 328 327 327 327 328 328 328 327 327 326 325 325 325 326 325 324 323 324 322 321 322 324
337 337 336 336 336 336 336 335 335 334 333 332 332 331 330 329 327 327 327 328 327 327 327 328 328 328 328 328 328 328 328 325 324 324 324 325 325 324 322 322 322 323 323
337 336 335 335 335 336 335 335 335 334 333 333 333 333 331 329 327 326 326 326 325 325 325 323 323 323 323 324 324 325 325 325 326 326 324 325 325 325 324 323 322 322 322
Wind_Speed
20 19 19 19 20 20 18 18 17 16 15 13 10 11 10 6 6 8 10 10 10 9 8 7 10 11 10 10 7 9 11 10 9 10 7 7 9 11 12 11 14 15 15
18 18 19 18 19 19 19 18 18 17 15 15 12 11 9 9 10 10 9 8 10 11 9 11 13 11 12 11 10 12 12 11 12 13 8 8 10 11 14 15 15 13 15
16 18 17 17 18 19 19 19 20 19 18 15 14 13 11 11 11 11 11 11 12 14 14 14 14 12 12 12 12 12 12 12 12 13 12 8 9 12 15 16 18 16 16
14 16 17 17 19 20 19 19 19 20 17 15 15 14 13 13 14 13 13 14 15 15 15 15 14 15 16 15 14 14 14 13 13 14 14 12 10 12 17 19 19 20 14
16 17 18 16 17 17 18 18 19 19 19 18 17 17 17 15 13 14 14 15 15 16 16 16 17 19 20 19 19 18 17 16 15 15 16 14 14 11 17 17 22 19 22
16 17 15 16 16 16 17 17 16 17 17 17 18 17 14 13 14 14 14 15 15 16 17 17 18 21 22 22 22 23 24 20 20 19 18 19 20 18 15 16 16 12 6
16 16 16 15 15 16 16 15 16 16 16 18 17 16 16 14 15 17 17 17 15 16 16 17 17 17 20 19 20 22 23 25 28 27 24 22 21 21 18 17 18 17 15
17 17 16 16 16 16 16 17 18 17 17 16 15 13 11 12 16 12 12 11 11 12 11 14 14 17 18 20 17 19 19 20 23 27 28 29 25 22 22 21 20 18 14
18 17 18 18 18 18 19 18 16 14 13 12 12 11 9 12 10 8 6 6 8 11 12 14 15 17 19 21 20 19 21 21 21 26 27 29 29 29 24 17 16 15 10
18 18 16 18 19 17 17 18 14 13 11 10 8 7 10 9 8 7 5 5 7 9 12 13 16 16 18 18 19 20 21 22 22 22 20 25 28 30 28 25 19 21 13
14 14 17 20 21 21 18 13 13 11 10 11 10 8 6 5 3 3 7 5 6 9 11 14 14 17 19 21 21 23 25 23 21 21 21 19 16 23 27 28 28 26 21
12 13 13 15 16 16 16 16 14 15 15 13 12 9 5 3 2 4 7 10 11 9 12 13 15 18 18 20 24 25 23 25 25 25 21 17 15 17 23 26 29 32 31
11 14 14 11 10 11 13 13 13 11 14 13 14 13 9 7 3 4 7 11 14 11 10 13 17 19 19 18 20 19 17 20 19 17 18 17 18 15 15 17 20 23 30
14 15 17 23 19 15 15 14 9 7 1 10 11 11 10 6 3 2 5 8 13 9 10 11 14 16 17 16 17 18 15 14 18 18 18 17 15 13 14 12 15 17 21
13 15 16 21 25 26 19 20 18 13 11 18 8 10 10 7 5 2 7 10 13 12 11 12 16 17 14 13 15 15 14 11 13 16 17 17 14 13 14 13 15 17 18
14 17 21 24 24 32 31 25 13 16 5 18 14 9 8 8 4 4 7 8 11 14 10 13 14 15 15 16 15 15 13 11 11 14 16 15 14 10 11 12 16 18 17
10 12 15 17 18 26 27 15 21 11 21 26 16 10 8 6 3 2 4 5 12 10 12 11 13 15 16 15 13 13 12 11 11 11 10 9 10 10 11 13 16 17 16
11 17 17 21 18 19 17 19 30 31 29 27 20 12 9 6 3 0 2 5 6 8 11 12 13 13 16 16 15 13 12 10 8 8 7 6 7 7 6 9 9 11 11
15 15 16 16 14 13 15 20 20 25 23 17 13 13 11 8 6 4 1 3 5 7 10 11 10 9 11 15 15 13 11 9 7 5 4 4 4 4 4 5 6 6 5
13 15 14 11 11 11 12 16 16 17 17 14 14 12 11 10 8 6 4 2 2 4 7 8 7 8 8 10 10 11 11 10 8 6 6 5 4 2 2 2 1 1 2
13 14 14 13 14 14 15 18 19 19 19 16 12 10 12 11 8 6 5 5 3 3 3 4 5 5 6 6 7 8 7 7 8 7 6 7 6 6 6 5 5 6 6
14 14 20 19 17 18 21 19 18 18 15 12 8 8 11 12 9 8 8 7 4 2 2 1 2 3 4 4 6 8 7 6 6 5 5 5 5 6 7 8 8 7 8
15 14 17 20 22 21 22 17 15 15 12 9 8 9 8 8 7 9 10 7 4 4 1 1 2 4 4 2 4 5 6 7 6 5 5 4 4 3 3 4 3 4 4
16 16 17 18 18 20 17 17 16 12 9 9 9 8 7 5 7 9 7 5 5 4 3 3 4 6 5 4 4 6 7 5 5 7 7 6 4 3 2 2 2 2 1
16 16 16 16 17 17 17 16 13 11 10 10 9 8 6 6 5 4 3 2 4 2 1 3 4 4 5 6 8 10 13 13 9 8 8 8 8 8 7 6 6 5 4
16 17 20 17 19 17 15 15 12 12 12 9 7 5 4 3 2 2 1 1 2 2 2 1 3 6 7 9 12 14 16 17 17 16 15 13 13 12 10 11 11 11 11
Wind_Direction
206 202 203 204 207 209 211 216 222 228 235 239 245 254 248 247 243 251 258 266 266 267 240 254 274 278 273 263 239 228 232 233 249 265 245 243 251 243 239 226 226 221 230
205 205 206 204 206 209 212 215 218 224 228 235 240 246 254 255 256 252 254 260 267 271 268 265 265 260 255 250 246 242 240 238 236 258 255 244 250 253 237 234 228 230 234
203 203 203 207 206 211 218 219 217 222 228 229 226 231 243 251 260 255 255 265 273 274 269 262 261 259 254 253 256 255 254 247 242 247 254 239 242 241 230 234 235 234 235
206 207 209 207 210 209 211 214 216 217 221 225 233 240 248 254 252 253 259 266 272 268 269 269 265 259 256 255 252 249 251 249 242 244 248 244 227 236 231 235 235 237 240
206 208 213 213 215 212 208 210 212 213 221 227 234 244 252 247 249 250 257 262 263 264 266 266 265 260 259 259 260 257 250 251 249 246 246 240 231 211 219 237 236 241 244
208 218 214 208 209 210 213 211 211 213 218 225 232 235 236 241 251 263 265 261 258 256 262 264 267 270 265 263 260 258 255 250 249 249 247 242 245 236 235 223 223 207 237
213 209 208 208 206 209 210 207 206 209 212 219 220 223 230 235 248 255 256 258 261 260 262 268 273 270 271 267 269 266 262 258 251 246 247 247 246 239 230 224 223 225 231
210 212 200 199 203 208 206 207 207 208 211 215 223 228 238 243 253 257 255 252 255 261 263 267 273 277 275 273 275 273 262 258 257 255 244 246 245 243 230 236 235 236 241
212 213 206 200 203 202 205 209 210 211 215 218 226 225 220 229 221 224 230 252 261 273 277 276 271 271 274 279 282 275 269 261 260 261 264 261 259 253 244 228 214 199 213
214 211 217 213 209 211 215 207 208 213 211 210 207 203 186 196 215 248 273 274 275 281 286 289 290 284 282 284 285 275 271 269 269 267 269 261 255 253 247 229 228 207 212
219 212 216 222 221 218 216 217 208 200 188 182 174 172 177 184 216 314 324 319 315 306 289 284 279 270 267 271 269 271 274 277 272 270 264 257 250 252 245 237 229 219 225
209 201 215 221 219 217 214 218 204 186 171 168 161 152 153 157 111 24 9 6 346 311 301 294 292 302 294 276 266 268 272 276 273 265 262 255 243 240 250 244 237 232 234
198 199 192 191 196 194 189 184 187 181 166 172 164 154 162 165 144 31 26 7 353 324 304 304 306 299 293 287 273 273 280 272 265 257 251 252 254 254 255 243 247 246 243
184 176 167 160 155 155 141 121 91 21 264 167 170 162 161 162 162 77 1 356 354 352 329 335 335 324 308 297 287 280 284 270 269 265 265 262 259 242 235 236 242 235 221
185 171 154 150 144 142 146 146 133 114 331 296 223 164 164 170 176 74 29 14 7 10 14 9 8 5 338 326 320 306 296 279 269 275 270 267 254 244 243 239 234 224 213
222 197 182 157 150 140 134 122 125 107 185 267 229 169 164 161 140 55 31 19 21 31 39 28 10 3 357 346 342 332 318 311 295 281 279 273 264 253 246 243 243 223 226
223 223 212 197 181 170 176 169 104 115 230 233 214 179 174 186 150 55 34 30 33 37 39 34 23 11 358 348 344 337 328 319 309 294 288 288 281 274 266 250 248 244 236
219 225 209 203 200 190 188 157 149 174 197 210 204 188 192 193 163 188 29 51 38 28 42 33 17 14 10 356 356 350 345 344 336 321 316 314 305 295 296 277 261 248 244
236 219 213 215 211 199 169 151 171 184 188 182 180 194 200 203 209 235 293 38 22 28 39 38 17 1 20 5 360 3 6 4 1 345 327 326 317 317 314 312 300 291 282
228 224 207 196 197 189 167 163 186 182 183 180 186 190 195 197 210 213 234 253 344 2 41 38 42 347 7 23 358 355 3 10 19 26 26 34 31 38 38 47 17 186 214
206 215 197 192 180 170 176 183 191 190 198 187 190 196 206 212 219 222 233 251 273 326 29 35 26 353 345 6 350 352 359 10 18 26 34 43 52 55 61 61 74 84 98
212 212 197 198 188 186 190 193 193 201 193 177 178 208 215 221 227 228 231 240 254 294 340 21 334 323 327 359 338 338 345 1 16 20 33 42 54 63 65 66 75 87 99
208 198 187 190 194 190 190 184 201 204 183 172 201 208 209 215 221 225 223 223 231 255 277 308 262 266 273 316 322 307 317 332 333 341 348 4 13 24 29 37 59 105 118
197 195 188 182 181 179 185 193 200 195 185 195 209 211 210 195 206 206 197 193 223 218 239 251 245 252 258 266 272 283 288 292 299 307 306 308 305 301 307 343 20 44 164
192 186 185 180 186 182 191 194 193 191 198 202 205 203 188 178 187 163 154 199 242 236 248 258 254 260 267 264 269 273 273 269 267 261 275 274 277 277 268 261 256 254 255
189 183 178 183 184 178 187 193 193 199 210 214 214 209 176 165 134 95 104 259 275 1 13 331 232 249 253 268 273 276 275 267 262 262 258 262 265 265 266 265 263 266 265